[Iaude] MPEC V51: 2023 VG1 [a=2.28,e=0.59,i=0.7,H=27.3]
    mpec at marsden.cfa.harvard.edu 
    mpec at marsden.cfa.harvard.edu
       
    Sun Nov  5 12:13:19 EST 2023
    
    
  
M.P.E.C. 2023-V51                              Issued 2023 November 5, 17:10 UT
     The Minor Planet Electronic Circulars contain information on unusual
         minor planets, routine data on comets and natural satellites,
         and occasional editorial announcements.  They are published
    on behalf of Division F of the International Astronomical Union by the
          Minor Planet Center, Smithsonian Astrophysical Observatory,
                          Cambridge, MA 02138, U.S.A.
			  
             Prepared using the Tamkin Foundation Computer Network
                              MPC at CFA.HARVARD.EDU
            URL https://www.minorplanetcenter.net/    ISSN 1523-6714
                                    2023 VG1                                    
Observations:
     K23V01G*1C2023 11 03.43989403 28 09.664+27 55 19.78         20.08GVEV051G96
     K23V01G 1C2023 11 03.45444603 28 44.515+27 58 49.84         20.06GVEV051G96
     K23V01G 1C2023 11 03.45959503 28 56.939+28 00 04.03         20.24GVEV051G96
     K23V01G KC2023 11 03.51371103 31 10.621+28 13 07.18         19.97GVEV051I52
     K23V01G KC2023 11 03.51443203 31 12.468+28 13 18.16         19.76GVEV051I52
     K23V01G KC2023 11 03.51517203 31 14.318+28 13 28.99         20.39GVEV051I52
     K23V01G KC2023 11 03.51589803 31 16.115+28 13 39.14         19.92GVEV051I52
     K23V01G 1C2023 11 04.29446704 10 18.760+31 33 52.60               VEV051G96
     K23V01G 1C2023 11 04.29642004 10 25.130+31 34 22.90               VEV051G96
     K23V01G 1C2023 11 04.29739504 10 28.190+31 34 38.40         19.96GVEV051G96
     K23V01G KC2023 11 05.30093505 17 08.315+35 12 22.46         19.92GVEV051I52
     K23V01G KC2023 11 05.30236605 17 14.615+35 12 37.69         19.71GVEV051I52
     K23V01G KC2023 11 05.30379705 17 20.900+35 12 52.63         20.60GVEV051I52
     K23V01G KC2023 11 05.30506905 17 26.477+35 13 05.70         20.41GVEV051I52
     K23V01G KC2023 11 05.31537205 18 09.41 +35 14 42.6          20.9 GXEV051858
     K23V01G KC2023 11 05.31864905 18 23.78 +35 15 15.1          19.8 GXEV051858
     K23V01G KC2023 11 05.32123205 18 35.18 +35 15 41.6          20.2 GXEV051858
     K23V01G KC2023 11 05.33557005 19 29.47 +35 17 45.5          20.8 GVEV051H21
     K23V01G KC2023 11 05.33663305 19 34.15 +35 17 55.5          20.6 GVEV051H21
     K23V01G KC2023 11 05.33769605 19 38.84 +35 18 05.1          20.4 GVEV051H21
     K23V01G KC2023 11 05.33875805 19 43.50 +35 18 15.3          20.4 GVEV051H21
     K23V01G KC2023 11 05.33981905 19 48.20 +35 18 25.4                VEV051H21
Observer details:
858 Tebbutt Observatory, Edgewood.  Observer F. B. Zoltowski.  0.51-m f/8.1
    Schmidt-Cassegrain + CCD.
G96 Mt. Lemmon Survey.  Observer J. B. Fazekas.  Measurers E. C. Beshore, D.
    Fay, J. B. Fazekas, D. C. Fuls, A. R. Gibbs, A. D. Grauer, H. Groeller, J.
    K. Hogan, R. A. Kowalski, S. M. Larson, G. J. Leonard, D. Rankin, R. L.
    Seaman, F. C. Shelly, K. W. Wierzchos.  1.5-m reflector + 10K CCD.
H21 Astronomical Research Observatory, Westfield.  Observer R. Holmes.
    Measurers T. Linder, R. Holmes, L. Horn.  0.76-m f/3.0 astrograph + CCD.
I52 Steward Observatory, Mt. Lemmon Station.  Observers D. Rankin, R. A.
    Kowalski.  Measurers E. C. Beshore, D. Fay, J. B. Fazekas, D. C. Fuls, A.
    R. Gibbs, A. D. Grauer, H. Groeller, J. K. Hogan, R. A. Kowalski, S. M.
    Larson, G. J. Leonard, D. Rankin, R. L. Seaman, F. C. Shelly, K. W.
    Wierzchos.  1.0-m prime focus + CCD.
Orbital elements:
2023 VG1                                                 Earth MOID = 0.0052 AU
Epoch 2023 Sept. 13.0 TT = JDT 2460200.5                Veres                   
M 337.02732              (2000.0)            P               Q                  
n   0.28543130     Peri.   55.76718     +0.20122168     -0.97953406             
a   2.2845552      Node    22.62585     +0.89457935     +0.18177711             
e   0.5890778      Incl.    0.71204     +0.39904589     +0.08642975             
P   3.45           H   27.34          G   0.15           U   8                  
Residuals in seconds of arc
231103 G96  0.5+  0.4+    231104 G96  0.3+  0.3-    231105 858  0.5+  0.3+
231103 G96 (2.1-  1.1-)   231104 G96  1.2-  0.1+    231105 H21  0.4+  0.3+
231103 G96 (2.7-  1.7-)   231105 I52  0.1-  0.1-    231105 H21  0.4+  0.3+
231103 I52  0.3-  0.6-    231105 I52  0.0   0.1+    231105 H21  0.5+  0.1-
231103 I52  0.2+  0.0     231105 I52  0.0   0.1+    231105 H21  0.3+  0.0
231103 I52  0.1+  0.2+    231105 I52  0.2-  0.1-    231105 H21  0.6+  0.2+
231103 I52  0.3-  0.1-    231105 858  0.4+  0.6+
231104 G96  0.3+  0.3-    231105 858  0.1-  0.1-
Ephemeris:
2023 VG1                 a,e,i = 2.28, 0.59, 1                   q = 0.9388
Date    TT    R. A. (2000) Decl.     Delta      r    Elong.  Phase     V
2023 10 06    00 53 45.4 +04 57 20   0.2025  1.2023   177.7     1.9    24.5
...
2023 10 21    01 08 35.3 +07 49 50   0.1009  1.0956   171.8     7.5    23.1
...
2023 10 29    01 42 45.9 +13 48 59   0.05322 1.0464   173.2     6.5    21.6
...
2023 11 04    03 54 15.4 +30 18 58   0.02418 1.0141   156.2    23.3    20.4
2023 11 05    04 54 50.7 +34 17 29   0.02153 1.0092   144.0    35.3    20.5
2023 11 06    06 12 36.4 +36 22 30   0.02032 1.0044   129.1    50.0    20.7
...
2023 11 12    10 47 11.7 +16 52 29   0.03964 0.9788    72.4   105.4    24.2
...
2023 11 20    11 45 34.9 +07 09 02   0.08332 0.9538    63.3   112.2    26.1
...
2023 12 05    12 17 04.7 +01 52 22   0.1677  0.9389    69.1   101.3    27.0
M. P. C. Staff               (C) Copyright 2023 MPC           M.P.E.C. 2023-V51
    
    
More information about the Iaude
mailing list